Regional Weather Roundup
Issued by NWS

Home | Current Version | Previous Version | Text Only | Print | Product List | Glossary On
Versions: 1 2 3 4 5 6 7 8 9 10 11 12 13 14 15 16 17 18 19 20 21 22 23 24 25 26 27 28 29 30 31 32 33 34 35 36 37 38 39 40 41 42 43 44 45 46 47 48 49 50
000
ASUS43 KOAX 021502
RWRNE

WEATHER ROUNDUP FOR NEBRASKA
NATIONAL WEATHER SERVICE OMAHA NE
1000 AM CDT WED SEP 02 2015

NOTES: SATELLITE DATA IS BEING USED TO AUGMENT CLOUD COVER ABOVE
       12000 FEET.
       "FAIR" INDICATES FEW OR NO CLOUDS BELOW 12,000 FEET WITH NO
       SIGNIFICANT WEATHER AND/OR OBSTRUCTIONS TO VISIBILITY.

  * THESE STATIONS DO NOT REPORT WEATHER SUCH AS RAIN...SNOW OR FOG.

NEZ001>004-019>022-054>056-021600-
NEBRASKA PANHANDLE

CITY           SKY/WX    TMP DP  RH WIND       PRES   REMARKS
SCOTTSBLUFF    MOSUNNY   67  50  54 CALM      29.99S
ALLIANCE       MOSUNNY   74  46  36 W10       29.96F
CHADRON        MOSUNNY   80  49  33 SW7       29.91F
KIMBALL        MOSUNNY   72  44  36 W9        30.05S
SIDNEY         PTSUNNY   72  45  37 NW10      30.02F
$$

NEZ057>060-069>072-079>082-021600-
SOUTHWEST NEBRASKA

CITY           SKY/WX    TMP DP  RH WIND       PRES   REMARKS
NORTH PLATTE   SUNNY     74  59  59 W8        29.91S
IMPERIAL       SUNNY     75  52  44 NW5       29.95F
LEXINGTON      SUNNY     76  65  67 S5        29.91S
MCCOOK         SUNNY     75  60  59 W6        29.92S
$$

NEZ005>010-023>029-035>040-094-021600-
NORTH CENTRAL NEBRASKA

CITY           SKY/WX    TMP DP  RH WIND       PRES   REMARKS
VALENTINE      SUNNY     75  56  51 SW8       29.86S
AINSWORTH      MOSUNNY   79  62  56 SW9       29.88R
BROKEN BOW     SUNNY     78  65  63 VRB3      29.89S
ORD            SUNNY     77  62  59 S6        29.87S
$$

NEZ041-046>049-061>064-073>077-083>087-021600-
SOUTH CENTRAL NEBRASKA

CITY           SKY/WX    TMP DP  RH WIND       PRES   REMARKS
GRAND ISLAND   SUNNY     81  60  48 SW10      29.90S
AURORA         SUNNY     77  65  65 SW12      29.90S
HASTINGS       SUNNY     77  62  59 S13       29.90S
HOLDREGE       SUNNY     77  59  52 S9        29.91S
KEARNEY *      SUNNY     75  61  60 S12       29.90S
YORK           SUNNY     77  66  69 SW8       29.90S
$$

NEZ011>018-030>034-042>045-021600-
NORTHEAST NEBRASKA

CITY           SKY/WX    TMP DP  RH WIND       PRES   REMARKS
NORFOLK        SUNNY     77  68  73 S7        29.87S
ALBION         SUNNY     76  65  68 S7        29.88S
BLAIR          SUNNY     77  67  73 S18       29.93S
COLUMBUS *     SUNNY     79  64  61 S6        29.89S
FREMONT        SUNNY     78  68  70 SE13      29.91S
TEKAMAH        SUNNY     79  70  74 S15G21    29.90S
$$

NEZ050>053-065>068-078-088>093-021600-
SOUTHEAST NEBRASKA

CITY           SKY/WX    TMP DP  RH WIND       PRES   REMARKS
LINCOLN        SUNNY     81  68  64 S13       29.91S
OMAHA EPPLEY   MOSUNNY   79  69  71 S17       29.93R
BEATRICE       SUNNY     79  67  65 S14       29.93S
FALLS CITY     CLOUDY    75  69  81 S10G20    29.98R
NEBRASKA CITY  SUNNY     77  65  67 S15G22    29.96S
PLATTSMOUTH    SUNNY     76  67  73 SE16G23   29.94S
$$

NEZ044-045-051>053-067-021600-
OMAHA AREA

CITY           SKY/WX    TMP DP  RH WIND       PRES   REMARKS
OMAHA EPPLEY   MOSUNNY   79  69  71 S17       29.93R
BLAIR          SUNNY     77  67  73 S18       29.93S
FREMONT        SUNNY     78  68  70 SE13      29.91S
OFFUTT AFB     SUNNY     78  69  71 SE14      29.93R
PLATTSMOUTH    SUNNY     76  67  73 SE16G23   29.94S
WAHOO          FAIR      78  70  75 S12G17    29.92R
$$



USA.gov is the U.S. government's official web portal to all federal, state and local government web resources and services.